Regional Weather Roundup
Issued by NWS Midland/Odessa, TX

Home | Current Version | Previous Version | Text Only | Print | Product List | Glossary On
Versions: 1 2 3 4 5 6 7 8 9 10 11 12 13 14 15 16 17 18 19 20 21 22 23 24 25 26 27 28 29 30 31 32 33 34 35 36 37 38 39 40 41 42 43 44 45 46 47 48 49 50
000
ASUS44 KMAF 240310
RWRMAF
MIDLAND AREA WEATHER ROUNDUP
NATIONAL WEATHER SERVICE MIDLAND TX
1000 PM CDT THU MAR 23 2017

...IN SOUTHWEST TEXAS AND SOUTHEAST NEW MEXICO...

CITY           SKY/WX    TMP DP  RH WIND       PRES   REMARKS
ALPINE         MOCLDY    73  14  10 W20G28    29.92R
ANDREWS        CLOUDY    71  33  24 W17G29    29.82R
ARTESIA        CLEAR     61  16  17 W40G49    29.79R
BIG SPRING     CLOUDY    71  52  51 SW26G43   29.82R
CARLSBAD       CLEAR     62  15  16 MISG      29.84R
DRYDEN           N/A     76  55  48 SE24G38   29.71R
FORT STOCKTON  CLOUDY    73  29  19 NW17G26   29.83R HAZE
GUAD PASS      PTCLDY    50  17  27 W44G55    29.90R
HOBBS          CLEAR     63  18  17 W20G28    29.88R
MARFA          CLOUDY    66  19  16 W24G38    29.93R HAZE
MIDLAND AIRPK  PTCLDY    74  53  48 S23G38    29.79R
MIDLAND INTL   MOCLDY    73  53  49 SW21G29   29.78R
ODESSA           N/A     73  52  47 SW26G36   29.81R
PECOS          CLOUDY    70  20  15 NW20G29   29.88R
PRESIDIO       FAIR      86  -4   3 SW18G30   29.77R
SEMINOLE       CLOUDY    68  29  23 W23G35    29.81R HAZE
SNYDER         CLEAR     71  51  49 S31G46    29.68R
WINK             N/A     72  23  16 W16       29.82R HAZE
$$
...OTHER STATIONS IN TEXAS...

CITY           SKY/WX    TMP DP  RH WIND       PRES   REMARKS
ABILENE        CLEAR     71  50  47 S32G46    29.73F
AMARILLO       LGT RAIN  54  46  74 SW17G30   29.70R
AUSTIN         MOCLDY    71  59  65 SE17G25   29.96R
BROWNSVILLE    CLEAR     73  66  78 SE18G25   29.99R
CORPUS CHRISTI MOCLDY    72  66  81 SE22      29.98R
DALLAS FTW     PTCLDY    77  43  29 S29G40    29.86S
DEL RIO        NOT AVBL
EL PASO        PTCLDY    57  19  22 W23G32    29.96R
HOUSTON INT    PTCLDY    71  62  73 SE18      30.06R
LUBBOCK        TSTM      66  56  70 S25G36    29.71R
SAN ANGELO     CLEAR     73  52  47 S25G40    29.73F
SAN ANTONIO    MOCLDY    69  60  73 SE21G26   29.96R
WACO           CLEAR     72  50  45 S25G36    29.91S
WICHITA FALLS  NOT AVBL
$$
...OTHER LOCATIONS IN NEW MEXICO...

CITY           SKY/WX    TMP DP  RH WIND       PRES   REMARKS
ALAMAGORDO     CLEAR     52  23  32 W14G21    29.98R
ALBUQUERQUE    CLOUDY    43  27  53 SW16G23   29.86R WCI  35
CANNON AFB     CLEAR     53  30  42 W29G38    29.74R
CLOVIS         CLEAR     55  27  33 W31G37    29.75R
HOLLOMAN AFB   CLEAR     53  24  32 W20G25    29.99R
ROSWELL        CLEAR     58  22  24 W26G36      N/A
RUIDOSO        CLOUDY    39  18  41 W14G28    29.93R WCI  31
SANTA FE       CLOUDY    35  35 100 SW9       29.77S WCI  28
TRUTH OR CONSE CLEAR     46  22  38 W21       29.96S WCI  38
TUCUMCARI      CLEAR     53  31  42 W33G44    29.63R
$$




USA.gov is the U.S. government's official web portal to all federal, state and local government web resources and services.